Home > Weather > Northeim > Past weeks

Flag for Germany Past Weather in Northeim, Lower Saxony, Germany — Yesterday and Last 2 Weeks

Now
64 °F

Fog.


Feels Like: 64 °F
Forecast: 59 / 71 °F
Wind: 3 mph from Northwest

Location: Fritzlar

Current Time: May 30, 2016 at 1:08:13 AM

Latest Report: May 30, 2016 at 12:00 AM


Visibility: 4 mi

Pressure: 29.67 "Hg

Humidity: 86%

Dew Point: 60 °F

Location of NortheimLocation

Past Weather in Northeim — Graph

°F

Northeim Temperature Yesterday

Maximum temperature yesterday: 73 °F (at 7:00 PM)
Minimum temperature yesterday: 57 °F (at 6:00 AM)
Average temperature yesterday: 65 °F

High & Low Weather Summary for the Past Weeks

 TemperatureHumidityPressure
High78 °F (May 22, 4:00 PM)97% (May 20, 4:00 AM)30.13 "Hg (May 20, 4:00 AM)
Low34 °F (May 16, 6:00 AM)40% (May 16, 6:00 PM)29.65 "Hg (May 29, 7:00 PM)
Average56 °F74%29.96 "Hg
* Reported May 15 12:00 AM — May 30 12:00 AM, Northeim, Weather by CustomWeather, © 2016

Note: Actual official high and low records may vary slightly from our data, if they occured in-between our weather recording intervals... More about our weather records

Advertising

Northeim Weather History for the Previous 24 Hours

Scroll right to see more
 ConditionsComfort  
Time TempWeatherWind HumidityBarometerVisibility
12:00 AM
Mon, May 30
64 °FFog.3 mph86%29.67 "Hg4 mi
10:00 PM
Sun, May 29
67 °FOvercast.3 mph82%29.68 "Hg5 mi
9:00 PM70 °FOvercast.5 mph77%29.67 "Hg7 mi
7:00 PM73 °FOvercast.3 mph65%29.65 "Hg11 mi
6:00 PM72 °FOvercast.3 mph64%29.67 "Hg11 mi
4:00 PM71 °FOvercast.2 mph66%29.70 "Hg11 mi
3:00 PM70 °FOvercast.2 mph69%29.71 "Hg11 mi
1:00 PM66 °FOvercast.N/A76%29.73 "Hg11 mi
12:00 PM66 °FOvercast.2 mph75%29.74 "Hg10 mi
10:00 AM62 °FLight rain. Low clouds.2 mph87%29.75 "Hg4 mi
9:00 AM62 °FFog.N/A88%29.76 "Hg4 mi
7:00 AM58 °FFog.2 mph94%29.77 "Hg3 mi
6:00 AM57 °FFog.3 mph95%29.78 "Hg4 mi
4:00 AM58 °FOvercast.2 mph96%29.80 "Hg9 mi
3:00 AM58 °FOvercast.2 mph94%29.81 "Hg9 mi
1:00 AM61 °FOvercast.1 mph89%29.85 "Hg9 mi
Weather by CustomWeather, © 2016

See weather overviewHow to use our weather pages